DECAYED

OBJECT H, 43669 (Decayed)

Orbit data source: Space-Track

You're viewing an Uncataloged Satellite

Recently launched and/or uncataloged satellites may have evolving metadata. Metadata may include but not limited to: Owner, Maufacturer, Bus, Motor, and Mission.

OBJECT H, 43669 was a satellite owned by Changsha Tianyi (CN) in LEO that was launched on Mon, 29 Oct 2018 UTC via a CHANG ZHENG 2C launch vehicle from the Jiuquan Satellite Launch Center, China (JSC). Unknown objects in Earth's orbit typically refer to objects detected orbiting the Earth but have not yet been identified or cataloged. These objects could be anything from previously untracked satellites, spent rocket stages, debris from satellite collisions, or even natural meteoroids temporarily captured by Earth's gravity. This object's orbit decayed before it could be identified.

Not visible in the next 10 days
OBJECT H details
Identifier
43669, 2018-083H
Orbit
Decayed
Last TLE update8 months ago
Origin
Flag of CNChangsha Tianyi (CN / PRC)
ManufacturerChangsha Tianyi
MissionDecayed Commercial Communications
Bus & MotorCUBESAT 6U, Unknown motor
Mass8 kg wet, 8 kg dry
Launch date (UTC)
2018-10-29 (6 years ago)
Launch vehicle
CHANG ZHENG 2C
Launch site
Jiuquan Satellite Launch Center, China (JSC)
Object typeUnknown
Shape & HBRBox, 0.3 m
Radar Cross Section0.080 m², Medium (>0.1 m² and < 1m²)

Expand to show TLE details & history

TLE from 8 months ago
0 OBJECT H
1 43669U 18083H   24130.99921043  .13914420  25146-5  50688-3 0  9992
2 43669  97.2952 170.3552 0012886 250.8284 109.1623 16.43032312307806
Epoch: 2024-05-09T23:58Z
Definitive object data (Epoch: 2024-05-09T23:58:51.781Z)
Latitude0.00001°
Longitude-57.64657°
Altitude163.782 km
Speed7.806 km/s
True Right ascension11h 21m 25s
True Declination0° 00' 00"
Sunlit
Object was in full shadow at TLE epoch
Visualization observer readout
Observer readout values are unavailable because the object's trajectory could not be propagated. This is usually caused when the trajectory data is faulty or the object's orbit has decayed.
Visualization observer readout
Observer readout values are unavailable because the object's trajectory could not be propagated. This is usually caused when the trajectory data is faulty or the object's orbit has decayed.
Orbital elements
Apogee altitude162.966 km
Perigee altitude146.129 km
Semi-major axis6,532.684 km
Eccentricity0.0012886
Inclination97.2952°
RAAN170.3552°
Arg. of periapsis250.8284°
True anomaly109.30171°
Mean anomaly109.1623°
Eccentric anomaly109.23201°
Mean motion4.1106 °/min
BSTAR0.00050688
Orbital period87.58 mins
Loading maneuver chart data...
Loading historical data...
Loading historical data...
Loading historical data...
Loading historical data...
Loading historical data...
Loading historical data...
Loading historical data...

OBJECT H Visibility forecast

Observer location: undefined°, undefined

This satellite is decayed
Span
Click to sort rows by Start time (UTC) header in descending order
Start Az.
Max El. time (UTC)
Max El. Az.
Max El.
End time (UTC)
End Az.
|